• MPC Preparation (Info)

  • MPEC 2006-T17 : 2006 TK

    The following Minor Planet Electronic Circular may be linked-to from your own Web pages, but must not otherwise be redistributed electronically.

    A form allowing access to any MPEC is at the bottom of this page.


    Read MPEC 2006-T16 Read MPEC 2006-T18


    M.P.E.C. 2006-T17                                Issued 2006 Oct. 3, 13:12 UT
    
         The Minor Planet Electronic Circulars contain information on unusual
             minor planets and routine data on comets.  They are published
       on behalf of Commission 20 of the International Astronomical Union by the
              Minor Planet Center, Smithsonian Astrophysical Observatory,
                              Cambridge, MA 02138, U.S.A.
    
                 Prepared using the Tamkin Foundation Computer Network
    
                                  MPC@CFA.HARVARD.EDU
              URL http://cfa-www.harvard.edu/iau/mpc.html  ISSN 1523-6714
    
                                        2006 TK
    
    Observations:
         K06T00K* C2006 10 01.40724 03 18 11.48 +14 56 09.3          20.9 V ET017G96
         K06T00K  C2006 10 01.41137 03 18 11.19 +14 56 09.7          20.8 V ET017G96
         K06T00K  C2006 10 01.41545 03 18 10.87 +14 56 09.9          21.1 V ET017G96
         K06T00K  C2006 10 01.41952 03 18 10.54 +14 56 10.0          21.3 V ET017G96
         K06T00K  C2006 10 01.48727 03 18 05.40 +14 56 14.1          20.8 V ET017G96
         K06T00K  C2006 10 01.49083 03 18 05.11 +14 56 14.6          20.9 V ET017G96
         K06T00K  C2006 10 01.49441 03 18 04.86 +14 56 14.1          21.7 V ET017G96
         K06T00K  C2006 10 01.49798 03 18 04.57 +14 56 14.6          20.9 V ET017G96
         K06T00K  C2006 10 02.38077 03 17 00.09 +14 57 08.8          20.7 V ET017G96
         K06T00K  C2006 10 02.38457 03 16 59.77 +14 57 09.2          21.3 V ET017G96
         K06T00K  C2006 10 02.38834 03 16 59.58 +14 57 09.6          21.3 V ET017G96
         K06T00K  C2006 10 02.39207 03 16 59.23 +14 57 09.9          20.6 V ET017G96
         K06T00K  C2006 10 03.30640 03 15 50.18 +14 57 58.8                 ET017291
         K06T00K HC2006 10 03.31581 03 15 49.28 +14 57 59.1                 ET017291
         K06T00K  C2006 10 03.40358 03 15 42.16 +14 58 02.6          21.9 V ET017G96
         K06T00K  C2006 10 03.40937 03 15 41.73 +14 58 02.4          22.0 V ET017G96
         K06T00K  C2006 10 03.41510 03 15 41.28 +14 58 02.7          21.5 V ET017G96
         K06T00K  C2006 10 03.42078 03 15 40.80 +14 58 02.6          21.5 V ET017G96
    
    Observer details:
    291 LPL/Spacewatch II.  Observer T. H. Bressi.  1.8-m f/2.7 reflector + CCD.
    G96 Mt. Lemmon Survey.  Observers R. A. Kowalski, E. C. Beshore.  Measurers
        E. C. Beshore, E. J. Christensen, G. J. Garradd, A. R. Gibbs, A. D. Grauer,
        R. E. Hill, R. A. Kowalski, S. M. Larson, R. H. McNaught.  1.5-m reflector
        + CCD.
    
    Orbital elements:
    2006 TK                                                  Earth MOID = 0.1126 AU
    Epoch 2006 Sept. 22.0 TT = JDT 2454000.5                MPC
    M  32.37752              (2000.0)            P               Q
    n   0.29994709     Peri.  253.10801     +0.39240745     +0.91692836
    a   2.2102409      Node    40.23997     -0.79539110     +0.37787265
    e   0.5214552      Incl.    6.44548     -0.46191925     +0.12827561
    P   3.29           H   19.5           G   0.15
    From 18 observations 2006 Oct. 1-3.
    
    Ephemeris:
    2006 TK                  a,e,i = 2.21, 0.52, 6                   q = 1.0577
    Date    TT    R. A. (2000) Decl.     Delta      r     Elong.  Phase     V
    2006 10 02    03 17.47   +14 56.8    0.781    1.663   137.5    24.0    21.2
    2006 10 12    03 03.22   +14 59.0    0.793    1.734   150.7    16.3    21.1
    2006 10 22    02 46.41   +14 46.8    0.824    1.803   164.6     8.4    20.9
    2006 11 01    02 29.56   +14 25.8    0.880    1.872   178.6     0.7    20.7
    2006 11 11    02 15.03   +14 04.0    0.960    1.940   167.9     6.2    21.3
    2006 11 21    02 04.21   +13 48.9    1.065    2.006   155.2    11.9    21.9
    
    Timothy B. Spahr             (C) Copyright 2006 MPC           M.P.E.C. 2006-T17
    

    Read MPEC 2006-T16 Read MPEC 2006-T18


    MPEC number:

    Enter an MPEC number in one of the following forms:

    • 1997-B01 (the full form)
    • J97B01 (the packed version of the full form)
    • B01 (the abbreviated form)